sat.trackr.live / text

‹ back to catalog

STARLINK-3134

NORAD 49434 · 2021-104AC

PAYLOAD ACTIVE UNKNOWN

§ Identity

Operator
Country
US
Launch date
2021-11-13
Launch site
AFETR
Launch vehicle
Mass (kg)
RCS (m²)

Purposes: comms

External: N2YO · Heavens-Above · Gunter

§ Orbital elements

Epoch: 2026-09-20T02:23:30.502176Z

Period
95.23 min
Inclination
53.2159°
Eccentricity
0.0002233
Mean motion
15.12053948 rev/d
Perigee alt
528.4 km
Apogee alt
531.5 km
Semi-major
6,908.1 km
B*
6.8880e-4
RAAN
75.2123°
Arg perigee
104.4148°
Mean anomaly
255.7094°
Rev number
26,908

§ Raw data

STARLINK-31341 49434U 21104AC  26263.09965859  .00011702  00000+0  68880-3 0  99952 49434  53.2159  75.2123 0002233 104.4148 255.7094 15.12053948269088

JSON: /api/v1/satellites/49434 · /tle

For live sub-satellite position, see the globe view (requires WebGL).

§ Visibility from observer

Set your observer location to see the next 7 days of passes ≥ 10°. The values pass through the URL so the page stays shareable.

No JS? Fill the form by hand. The geolocation button needs JavaScript.